Terminal Aerodrome Forecast
Issued by NWS Twin Cities, MN

Home | Current Version | Previous Version | Text Only | Print | Product List | Glossary On
Versions: 1 2 3 4 5 6 7 8 9 10 11 12 13 14 15 16 17 18 19 20 21 22
029
FTUS43 KMPX 291120
TAFEAU
TAF
KEAU 291120Z 2912/3012 VRB03KT P6SM FEW060
      TEMPO 3009/3012 5SM BR SCT005=

USA.gov is the U.S. government's official web portal to all federal, state and local government web resources and services.